Overview Statistics Trail Chart Weather Telemetry Raw packets
 

This is the latest recevied weather packets stored in our database for station/object WC4PEM-4. If no packets are shown the sender has not sent any weather packets the latest 10 day(s).

<< 18 19 20 21 22 23 24 >>
Time Temp. Humidity Pressure Rain* Wind** Luminosity Snow
1788470473 28.33° C 79% 1012.9 hPa 0 mm - - -
1788470395 28.89° C 78% 1012.7 hPa 0 mm - - -
1788470173 28.89° C 78% 1012.7 hPa 0 mm - - -
1788469873 28.89° C 78% 1012.7 hPa 0 mm - - -
1788469573 29.44° C 78% 1012.8 hPa 0 mm - - -
1788469273 29.44° C 78% 1012.9 hPa 0 mm - - -
1788468973 29.44° C 78% 1012.8 hPa 0 mm - - -
1788468673 29.44° C 79% 1012.5 hPa 0 mm - - -
1788468373 29.44° C 78% 1012.5 hPa 0 mm - - -
1788468073 30° C 78% 1012.5 hPa 0 mm - - -
1788467898 30° C 78% 1012.6 hPa 0 mm - - -
1788467773 30° C 78% 1012.6 hPa 0 mm - - -
1788467473 30° C 77% 1012.6 hPa 0 mm - - -
1788467173 30° C 78% 1012.5 hPa 0 mm - - -
1788466873 30° C 77% 1012.3 hPa 0 mm - - -
1788466573 30.56° C 77% 1012.3 hPa 0 mm - - -
1788466273 30.56° C 75% 1012.3 hPa 0 mm - - -
1788465973 31.11° C 76% 1012.6 hPa 0 mm - - -
1788465673 31.67° C 74% 1012.7 hPa 0 mm - - -
1788465373 31.67° C 73% 1013 hPa 0 mm - - -
1788465073 31.11° C 76% 1013 hPa 0 mm - - -
1788464773 31.11° C 76% 1013 hPa 0 mm - - -
1788464473 30.56° C 78% 1013.2 hPa 0 mm - - -
1788464173 30.56° C 77% 1013.3 hPa 0 mm - - -
1788463873 30.56° C 78% 1013.5 hPa 0 mm - - -

* Rain latest hour (hover to see other rain measurements)
** Current wind speed in m/s (hover to see current wind gust speed)